"Pseudo-MPEC" for C0FMWE5

Created 2023 Jan 27 11:22:05 UT using Find_Orb

Click here for an explanation of pseudo-MPECs

 
 Astrometry: 
     C0FMWE5* C2023 01 25BOo2`lm@l*%oM`3gd]cGb7s'IrUMI/I6IoAstrometry)ia3nV3vV00
     C0FMWE5  C2023 01 25!=Z^[=.'A'6HakrJ:.t0kcKY2\Fredacted;.RG%3_+H`#WgD8XlV00
     C0FMWE5  C2023 01 25yII=w'raSQs5w[gy`T^E#DH4fFLDm%me(dllgEo`4FuUE[0^g()!V00
     C0FMWE5  C2023 01 25n)'8v,_b4J.npL[ouu)up8u+YfiaoD0xKO1bkFfy:\%P+%huPJ[)V00
     C0FMWE5 KC2023 01 25.53525 10 24 07.07 +36 16 40.7    ~1PDM 21.8 RoNEOCP291
     C0FMWE5 KC2023 01 25.53887 10 24 08.59 +36 16 40.8    ~1PDM 20.9 RoNEOCP291
     C0FMWE5 KC2023 01 25.54249 10 24 10.14 +36 16 40.3    ~1PDM       oNEOCP291
     C0FMWE5 mC2023 01 25)GrclickEpqUoBWxTsiT_hHumxZGXHv.OGiXPk*ua!*0xb.,[Q`uV00
     C0FMWE5 mC2023 01 25sbJ@;+gsS'\eJ:ooyE1TOARk*8'[R/;OVe=O?[0!4pI*Iheren;#V00
     C0FMWE5 mC2023 01 25x60itHp0!L?p-nLreU7?m-=$7fr,CJwSnqV[1k[RI-J455ciBm4FV00
     C0FMWE5 mC2023 01 25@@iforD=w8i-WJr%STN:$b0@QE]ugcB!cv-am*y6k0ac2@pfn0EVV00
     C0FMWE5 KC2023 01 26.36107610 30 14.116+36 18 16.38   ~1Q97 22.20GVNEOCPI52
     C0FMWE5 KC2023 01 26.36306110 30 14.915+36 18 16.96   ~1Q97 21.91GVNEOCPI52
     C0FMWE5 KC2023 01 27@?be#],@%b*v87]+u6B@G])Y#SqcE')dCHA.b`JF\b7sn2/jRVM5H21
     C0FMWE5 KC2023 01 276*h6U+5\hSju`xexplanation7I]61tcY`sIlOP[?Z#/5.DLvx,@H21

Station data:
(291) LPL/Spacewatch II  (N31.961669 W111.599905)  US/Arizona.  Observers J.
   V. Scotti, R. S. McMillan. 1.8-m f/2.7 reflector + CCD.
(H21) Astronomical Research Observatory, Westfield  (N39.483054 W87.968270)
   US/Illinois.  Observer R. Holmes. Measurers S. Foglia, L. Buzzi, T.
   Linder, R. Holmes. 0.76-m f/3.0 astrograph + CCD0.81-m f/4.0 astrograph +
   CCD0.61-m f/4.5 astrograph + CCD0.40-m f/5.32 astrograph + CCD.
(I52) Steward Observatory, Mt. Lemmon Station  (N32.442544 W110.788920)
   US/Arizona.  Observers T. A. Pruyne, B. M. Africano, E. J. Christensen, G.
   A. Farneth, D. C. Fuls, A. R. Gibbs, A. D. Grauer, H. Gröller, J. A.
   Johnson, R. A. Kowalski, S. M. Larson, G. J. Leonard, D. Rankin, R. L.
   Seaman, F. C. Shelly, K. W. Wierzchoś. 1.0-m reflector + CCD.
(V00) Kitt Peak-Bok  (N31.963125 W111.600190)  US/Arizona.  Observers T. A.
   Pruyne, B. M. Africano, E. J. Christensen, G. A. Farneth, D. C. Fuls, A.
   R. Gibbs, A. D. Grauer, H. Gröller, J. A. Johnson, R. A. Kowalski, S. M.
   Larson, G. J. Leonard, D. Rankin, R. L. Seaman, F. C. Shelly, K. W.
   Wierzchoś. 2.25-m reflector + CCD.

Orbital elements:  C0FMWE5
   Perihelion 2023 Feb 9.12163 +/- 0.0866 TT =  2:55:08 (JD 2459984.62163)
Epoch 2023 Jan 27.0 TT = JDT 2459971.5   Earth MOID: 0.1269   Ma: 0.0407
M 356.43090646 +/- 0.09             (J2000 ecliptic)             AutoNEOCP
n   0.27200081 +/- 0.00586          Peri.   62.71726 +/- 0.23
a   2.35915191 +/- 0.0339           Node    79.90970 +/- 0.16
e   0.5357266 +/- 0.00617           Incl.    4.12199 +/- 0.042
P   3.62                   H 24.49  G  0.15   U  9.3
q 1.09529132 +/- 0.00119    Q 3.62301250 +/- 0.0666
From 15 observations 2023 Jan. 25-27 (44.6 hr); mean residual 0".16
Residuals in arcseconds: 
230125 V00  .12+  .19-    230125 291  .03+  .29+    230125 V00  .15-  .10-    
230125 V00  .01-  .21+    230125 291  .35+  .23-    230126 I52  .14+  .31-    
230125 V00  .01+  .07-    230125 V00  .28-  .02-    230126 I52  .13-  .09+    
230125 V00  .02-  .02+    230125 V00  .19-  .09+    230127 H21  .01-  .05+    
230125 291  .05+  .23+    230125 V00  .24-  .21-    230127 H21  .00   .05+    

Ephemerides (geocentric):
Date (UTC) HH   RA             Dec           delta  r     elong  mag " sig PA
---- --------  ------------   ------------  ------ ------ -----  --- --------
2023 01 27 11  10 38 17.621   +36 17 49.13  .13985 1.1058 148.0 21.7 .073  87
2023 01 27 12  10 38 36.057   +36 17 45.04  .13980 1.1057 148.0 21.7 .061  83
2023 01 27 13  10 38 54.495   +36 17 40.71  .13976 1.1057 148.0 21.7 .049  77
2023 01 27 14  10 39 12.935   +36 17 36.14  .13972 1.1056 147.9 21.7 .037  66
2023 01 27 15  10 39 31.377   +36 17 31.34  .13968 1.1055 147.9 21.7 .027  44
2023 01 27 16  10 39 49.819   +36 17 26.31  .13964 1.1055 147.9 21.7 .024   7
2023 01 27 17  10 40 08.264   +36 17 21.04  .13959 1.1054 147.8 21.7 .031 154
2023 01 27 18  10 40 26.709   +36 17 15.54  .13955 1.1053 147.8 21.7 .045 136
2023 01 27 19  10 40 45.156   +36 17 09.80  .13951 1.1053 147.8 21.7 .062 127
2023 01 27 20  10 41 03.604   +36 17 03.83  .13947 1.1052 147.7 21.7 .081 122
2023 01 27 21  10 41 22.054   +36 16 57.62  .13943 1.1051 147.7 21.7 .101 118
2023 01 27 22  10 41 40.504   +36 16 51.18  .13939 1.1051 147.7 21.7 .122 116
2023 01 27 23  10 41 58.955   +36 16 44.50  .13935 1.1050 147.7 21.7 .144 114
2023 01 28 00  10 42 17.406   +36 16 37.59  .13931 1.1049 147.6 21.7 .168 113
2023 01 28 01  10 42 35.859   +36 16 30.43  .13927 1.1049 147.6 21.7 .192 112
2023 01 28 02  10 42 54.311   +36 16 23.05  .13923 1.1048 147.6 21.7 .217 111
2023 01 28 03  10 43 12.765   +36 16 15.43  .13919 1.1047 147.5 21.7 .243 110
2023 01 28 04  10 43 31.218   +36 16 07.57  .13915 1.1047 147.5 21.7 .270 109
2023 01 28 05  10 43 49.672   +36 15 59.47  .13912 1.1046 147.5 21.7 .298 109
2023 01 28 06  10 44 08.126   +36 15 51.14  .13908 1.1045 147.4 21.7 .327 108
2023 01 28 07  10 44 26.581   +36 15 42.58  .13904 1.1045 147.4 21.7 .357 108
2023 01 28 08  10 44 45.035   +36 15 33.77  .13900 1.1044 147.4 21.7 .388 108
2023 01 28 09  10 45 03.489   +36 15 24.73  .13896 1.1043 147.3 21.7 .420 107
2023 01 28 10  10 45 21.943   +36 15 15.46  .13893 1.1043 147.3 21.7 .452 107
2023 01 28 11  10 45 40.396   +36 15 05.94  .13889 1.1042 147.3 21.7 .486 107
2023 01 28 12  10 45 58.849   +36 14 56.19  .13885 1.1042 147.3 21.7 .521 107
2023 01 28 13  10 46 17.301   +36 14 46.21  .13882 1.1041 147.2 21.7 .556 107
2023 01 28 14  10 46 35.753   +36 14 35.98  .13878 1.1040 147.2 21.7 .592 106
2023 01 28 15  10 46 54.204   +36 14 25.53  .13874 1.1040 147.2 21.7 .630 106
2023 01 28 16  10 47 12.655   +36 14 14.83  .13871 1.1039 147.1 21.7 .668 106
2023 01 28 17  10 47 31.104   +36 14 03.90  .13867 1.1038 147.1 21.7 .707 106
2023 01 28 18  10 47 49.552   +36 13 52.73  .13864 1.1038 147.1 21.7 .747 106
2023 01 28 19  10 48 08.000   +36 13 41.32  .13860 1.1037 147.0 21.7 .788 106
2023 01 28 20  10 48 26.446   +36 13 29.67  .13857 1.1037 147.0 21.7 .830 106
2023 01 28 21  10 48 44.890   +36 13 17.79  .13853 1.1036 147.0 21.7 .873 106
2023 01 28 22  10 49 03.334   +36 13 05.68  .13850 1.1035 146.9 21.7 .917 106
2023 01 28 23  10 49 21.775   +36 12 53.32  .13846 1.1035 146.9 21.7 .962 105
2023 01 29 00  10 49 40.215   +36 12 40.73  .13843 1.1034 146.9 21.7 1.01 105
2023 01 29 01  10 49 58.654   +36 12 27.90  .13840 1.1034 146.9 21.7 1.05 105
2023 01 29 02  10 50 17.090   +36 12 14.83  .13836 1.1033 146.8 21.7 1.10 105
2023 01 29 03  10 50 35.525   +36 12 01.53  .13833 1.1032 146.8 21.7 1.15 105
2023 01 29 04  10 50 53.958   +36 11 47.99  .13830 1.1032 146.8 21.7 1.20 105
2023 01 29 05  10 51 12.388   +36 11 34.21  .13826 1.1031 146.7 21.7 1.25 105
2023 01 29 06  10 51 30.817   +36 11 20.20  .13823 1.1031 146.7 21.7 1.30 105
2023 01 29 07  10 51 49.243   +36 11 05.95  .13820 1.1030 146.7 21.7 1.35 105
2023 01 29 08  10 52 07.666   +36 10 51.46  .13817 1.1029 146.6 21.7 1.41 105
2023 01 29 09  10 52 26.087   +36 10 36.74  .13813 1.1029 146.6 21.7 1.46 105
2023 01 29 10  10 52 44.506   +36 10 21.77  .13810 1.1028 146.6 21.7 1.52 105